Regional Weather Roundup
Issued by NWS

Home | Current Version | Previous Version | Text Only | Print | Product List | Glossary On
Versions: 1 2 3 4 5 6 7 8 9 10 11 12 13 14 15 16 17 18 19 20 21 22 23 24 25 26 27 28 29 30 31 32 33 34 35 36 37 38 39 40 41 42 43 44 45 46 47 48 49 50
000
ASUS43 KDMX 231707
RWRIA

WEATHER ROUNDUP FOR IOWA
NATIONAL WEATHER SERVICE DES MOINES IA
1200 PM CDT SAT AUG 23 2014

NOTE: "FAIR" INDICATES FEW OR NO CLOUDS BELOW 12,000 FEET WITH NO
SIGNIFICANT WEATHER AND/OR OBSTRUCTIONS TO VISIBILITY.

* - THESE STATIONS ARE NOT NWS STATIONS...THUS NOT UNDER NWS
QUALITY CONTROL.  THEY ALSO DO NOT REPORT WEATHER SUCH
AS PRECIPITATION OR FOG.

IAZ001>003-012>014-020>022-031>034-043>046-231800-
   NORTHWEST IOWA

CITY           SKY/WX    TMP DP  RH WIND       PRES   REMARKS
CARROLL *      MOSUNNY   75  72  88 SE12      29.91S
CHEROKEE *     CLOUDY    77  72  83 SE5       29.90S
DENISON *      MOSUNNY   77  73  88 SE10G20   29.88S
LE MARS *      MOSUNNY   77  72  83 SE12      29.90F
ORANGE CITY *  PTSUNNY   79  70  73 E8        29.90F HX  81
SHELDON *      MOSUNNY   75  72  88 SE13      29.89F
SIOUX CITY     CLOUDY    78  71  79 SE12      29.89S HX  80
SPENCER        PTSUNNY   77  71  82 SE13      29.91F
STORM LAKE *   PTSUNNY   75  75 100 SE13      29.92R
$$

IAZ055>058-069>071-079>083-090>094-231800-
   SOUTHWEST IOWA

CITY           SKY/WX    TMP DP  RH WIND       PRES   REMARKS
ATLANTIC *     PTSUNNY   79  73  83 SE15      29.89S HX  82
AUDUBON *      SUNNY     79  73  83 SE7       29.92S HX  82
CLARINDA *     MOSUNNY   84  77  79 SE7G13    29.89F HX  94
COUNCIL BLFS * MOSUNNY   81  77  89 S9G16     29.88R HX  88
CRESTON *      MOSUNNY   81  75  83 SE12G20   29.92S HX  86
HARLAN  *      SUNNY     77  72  83 SE9       29.92S
LAMONI         PTSUNNY   80  73  79 SE12      29.92S HX  84
RED OAK *      PTSUNNY   81  75  83 SE13      29.87F HX  86
SHENANDOAH *   SUNNY     84  77  79 SE12G18   29.87F HX  94
$$

IAZ047>049-059>061-072>074-084-231800-
   CENTRAL IOWA

CITY           SKY/WX    TMP DP  RH WIND       PRES   REMARKS
AMES           CLOUDY    74  72  93 SE7       29.91R
ANKENY *       CLOUDY    77  73  88 SE13      29.88F
CHARITON *     SUNNY     81  73  78 SE9       29.93S HX  85
DES MOINES     CLOUDY    80  71  74 SE17      29.89F HX  84
GRINNELL*      CLOUDY    75  70  83 E5        29.94S
KNOXVILLE *    SUNNY     77  72  83 SE6G12    29.92S
MARSHALLTOWN   CLOUDY    74  71  91 E12       29.91F
PELLA *        CLOUDY    77  72  83 SE6       29.93F
PERRY *        PTSUNNY   75  72  88 SE6       29.91S
$$

IAZ004>006-015-016-023>025-035-036-231800-
   NORTH CENTRAL IOWA

CITY           SKY/WX    TMP DP  RH WIND       PRES   REMARKS
ALGONA *       MOSUNNY   75  72  88 VRB7      29.92S
CLARION *      MOSUNNY   75  72  88 E7        29.91F
ESTHERVILLE    CLOUDY    76  70  82 SE12      29.91F
FORT DODGE *   CLOUDY    75  72  88 SE9       29.93R
MASON CITY     CLOUDY    74  71  91 SE6       29.94S
FOREST CITY *  SUNNY     73  72  94 SE8       29.93R
IOWA FALLS *     N/A     73  70  88 E7        29.93S
$$

IAZ007>011-017>019-026>030-037>042-050>054-066-231800-
   NORTHEAST IOWA

CITY           SKY/WX    TMP DP  RH WIND       PRES   REMARKS
CEDAR RAPIDS   CLOUDY    72  72 100 NE3       29.96R
CHARLES CITY * SUNNY     73  70  88 E9        29.94R
CLINTON *      CLOUDY    72  70  94 NE6       30.03R
DECORAH *      LGT RAIN  70  70 100 N9        29.96F
DUBUQUE        FOG       71  71 100 NE15      29.95F VSB 3/4
MONTICELLO *   CLOUDY    72  72 100 E8        29.92F
OELWEIN *      MOSUNNY   73  70  88 NE7       29.96S
WATERLOO       CLOUDY    74  71  91 SE7       29.94R
$$

IAZ064-065-067-068-078-231800-
   EAST CENTRAL IOWA

CITY           SKY/WX    TMP DP  RH WIND       PRES   REMARKS
DAVENPORT      LGT RAIN  71  69  93 E9        29.98S
IOWA CITY      CLOUDY    72  72 100 CALM      29.94R
MT. PLEASANT * CLOUDY    73  72  94 E8        29.96R
MUSCATINE *    MOSUNNY   73  70  88 E7        29.96R
QUAD CITIES    CLOUDY    72  69  90 E9        29.98R
$$

IAZ062-063-075>077-085>089-095>099-231800-
   SOUTHEAST IOWA

CITY           SKY/WX    TMP DP  RH WIND       PRES   REMARKS
BURLINGTON     CLOUDY    74  73  97 E10       29.95F
FAIRFIELD *    MOSUNNY   73  70  88 SE8       29.95S
FORT MADISON * SUNNY     79  75  89 E9        29.95S HX  82
KEOKUK *       SUNNY     79  73  83 E9        29.94R HX  82
OSKALOOSA *      N/A     75  72  88 SE7       29.94R
CENTERVILLE *  SUNNY     81  75  83 E6        29.95F HX  86
OTTUMWA        CLOUDY    75  71  87 SE8       29.93S
WASHINGTON *   SUNNY     72  72 100 E8        29.95S
$$

ABBREVIATIONS USED IN REMARKS
   TC - TEMPERATURES IN CELSIUS
  WCI - WIND CHILL INDEX
   HX - HEAT INDEX
  VSB - VISIBILITY
$$




USA.gov is the U.S. government's official web portal to all federal, state and local government web resources and services.